Location: Boussais
(46.7569°N, 0.2867°E)
Time: 23:28:23
(UTC+00:00)

Daily predictions for brighter satellites

Satellite Brightness Start Highest point End
(mag) Time Altitude Azimuth Time Altitude Azimuth Time Altitude Azimuth
Okean O Rocket 3.5 18:03:30 10° E 18:05:38 13° ENE 18:07:45 10° NNE
Cosmos 2219 Rocket 2.6 18:00:55 10° SW 18:06:28 69° WNW 18:12:06 10° NNE
Cosmos 1470 Rocket 3.7 18:03:17 10° S 18:07:40 81° W 18:12:07 10° N
Helios 1A 4.1 18:03:56 10° N 18:07:52 48° WNW 18:11:48 10° SW
Meteor PRIRODA 3.5 18:04:23 10° SSE 18:07:54 74° ENE 18:11:27 10° N
Tiangong -0.5 18:06:07 10° SW 18:08:41 23° SSE 18:11:13 10° ESE
USA 305 3.0 18:11:30 10° WNW 18:13:34 31° SW 18:15:37 10° SSE
USA 307 3.8 18:12:47 10° W 18:14:57 24° SW 18:17:11 10° SSE
CZ-4B R/B 2.5 18:14:36 10° SSE 18:18:02 59° ENE 18:21:32 10° N
NOSS 2-2 (E) 3.8 18:15:09 10° WSW 18:18:17 46° NW 18:21:30 10° NNE
Meteor 1-29 4.1 18:16:55 10° S 18:19:37 39° W 18:22:21 10° NNW
GEOS 3 Rocket 3.8 18:20:25 10° NE 18:25:49 80° NW 18:31:06 10° SW
NOSS 3-1 (A) 3.4 18:22:24 10° S 18:27:06 45° ESE 18:32:37 10° NE
Cosmos 1733 Rocket 4.3 18:27:07 10° SE 18:30:17 20° E 18:33:26 10° NE
Cosmos 2218 Rocket 4.4 18:24:29 10° NNW 18:30:35 67° W 18:36:41 10° S
Cosmos 1975 4.0 18:27:02 10° SSW 18:30:46 46° WNW 18:34:33 10° N
IGS 5A 3.4 18:29:04 10° SSE 18:33:04 58° ENE 18:37:08 10° N
Resurs 01 Rocket 3.5 18:32:25 12° ENE 18:33:19 13° ENE 18:35:12 10° NNE
USA 186 3.8 18:35:27 12° NE 18:35:27 12° NE 18:36:18 10° NE
ADEOS 4.1 18:30:32 10° S 18:35:42 65° WSW 18:40:54 10° NNW
CZ-4B DEB 4.1 18:31:25 10° SSE 18:36:50 73° ENE 18:42:16 10° N
Cosmos 1703 Rocket 4.1 18:33:55 10° NNW 18:38:21 64° W 18:42:46 10° S
SKYMED 2 4.3 18:34:20 10° N 18:38:36 56° WNW 18:42:51 10° SSW
Cosmos 1269 Rocket 4.0 18:33:34 10° S 18:38:48 68° ESE 18:44:05 10° NNE
NOSS 2-2 (D) 4.1 18:36:56 10° WSW 18:40:00 39° NW 18:43:08 10° NNE
Cosmos 1980 3.8 18:35:04 10° S 18:40:32 54° ESE 18:46:03 10° NE
Cosmos 1932 4.5 18:37:53 10° NW 18:44:19 70° NE 18:50:14 12° SE
NOSS 2-2 (C) 4.3 18:41:18 10° WSW 18:44:20 37° NW 18:47:26 10° NNE
Cosmos 1933 Rocket 4.2 18:41:48 10° SSW 18:46:06 58° WNW 18:50:25 10° N
Cosmos 2242 Rocket 3.5 18:42:09 10° N 18:46:40 75° E 18:51:13 10° SSE
Cosmos 1766 3.0 18:43:01 10° S 18:46:47 74° E 18:50:33 10° NNE
Okean-O 4.3 18:46:44 15° ENE 18:47:07 15° ENE 18:49:36 10° NNE
CZ-4B R/B 3.3 18:42:27 10° SE 18:47:31 49° ENE 18:52:39 10° N
Cosmos 1867 3.7 18:42:28 10° SSW 18:47:44 55° ESE 18:53:04 10° NE
Cosmos 614 Rocket 3.9 18:42:50 10° SSW 18:47:53 87° WNW 18:53:00 10° NNE
Cosmos 1140 Rocket 4.3 18:46:04 10° SSE 18:50:19 27° E 18:54:37 10° NE
Okean 2 3.8 18:47:20 10° NNW 18:51:20 62° W 18:55:17 10° S
SL-08 R/B 4.3 18:46:50 10° N 18:51:39 53° WNW 18:56:25 10° SW
Cosmos 2278 Rocket 2.3 18:46:16 10° NNW 18:51:58 82° WSW 18:57:37 10° SSE
Cosmos 1992 Rocket 4.3 18:48:55 10° NNW 18:54:09 71° WSW 18:59:20 10° S
MOS 1-B 4.5 18:49:02 10° SE 18:54:38 55° ENE 19:00:17 10° N
ISS -1.3 18:53:25 10° W 18:55:51 19° SW 18:58:16 10° S
PAYLOAD B 4.2 18:51:31 10° SSE 18:57:04 80° ENE 19:02:38 10° NNW
CZ-4C R/B 3.6 18:55:15 10° NNE 18:58:22 32° E 18:59:36 25° SE
Cosmos 1934 Rocket 4.1 18:54:41 10° N 19:00:54 57° ENE 19:07:00 10° SSE
Cosmos 389 Rocket 3.9 18:59:40 10° NNE 19:01:01 18° NE 19:01:01 18° NE
USA 276 3.2 19:00:44 10° SSW 19:02:13 22° S 19:02:13 22° S
USA 267 4.2 18:58:14 14° ENE 19:03:19 37° N 19:09:13 10° WNW
NOSS 3-1 (C) 3.8 18:58:47 10° WSW 19:03:48 56° NW 19:09:51 10° NE
Cosmos 2251 Rocket 4.0 19:05:43 10° SSE 19:10:27 34° ESE 19:15:11 10° NE
YAOGAN 1 3.5 19:06:30 10° S 19:10:40 49° W 19:14:53 10° NNW
Cosmos 1674 Rocket 4.1 19:08:20 10° N 19:12:26 35° ENE 19:12:54 34° E
CZ-4 R/B 1.1 19:12:15 14° SSE 19:15:29 88° WSW 19:19:18 10° NNW
Cosmos 2237 Rocket 2.2 19:12:53 10° SSW 19:18:36 84° WNW 19:24:20 10° NNE
SL-4 R/B 2.8 19:15:14 10° SSW 19:19:00 34° SSE 19:19:00 34° SSE
Cosmos 2369 Rocket 3.3 19:15:31 10° N 19:20:12 26° NE 19:21:10 25° ENE
Lacrosse 5 2.7 19:15:57 10° NW 19:20:45 39° NNE 19:22:30 30° ENE
COSMOS 2455 4.4 19:18:41 10° NW 19:24:00 33° WSW 19:29:16 10° S
SL-16 R/B 2.5 19:23:01 10° S 19:28:13 39° ESE 19:33:28 10° NE
Cosmos 1470 2.7 19:24:58 10° SSW 19:28:49 81° W 19:32:42 10° N
Cosmos 1943 Rocket 2.2 19:26:37 10° NNW 19:32:19 83° WSW 19:35:34 26° SSE
Meteor 1-22 Rocket 4.0 19:27:33 10° S 19:32:45 63° E 19:38:02 10° NNE
SJ-6B 3.0 19:30:50 23° S 19:33:12 71° WSW 19:37:11 10° NNW
CZ-4C R/B 4.2 19:29:48 10° NNW 19:34:48 23° NNE 19:38:13 17° NE
Landsat 7 4.3 19:31:41 10° S 19:36:19 60° W 19:41:01 10° NNW
Cosmos 2221 Rocket 3.5 19:33:49 10° N 19:38:21 69° E 19:38:56 61° SE
ATLAS 3B R/B 3.8 19:31:55 10° WSW 19:38:39 46° NW 19:45:53 10° NE
CENTAUR R/B 3.9 19:32:38 10° NW 19:39:52 38° NNE 19:43:21 29° ENE
Okean O Rocket 1.6 19:39:33 37° S 19:41:17 82° WSW 19:45:46 10° NNW
ADEOS Rocket 3.5 19:38:43 29° SE 19:42:51 64° ENE 19:49:55 10° N
Cosmos 2297 3.9 19:39:00 10° NNW 19:44:38 53° ENE 19:45:25 49° E
Tiangong 0.0 19:42:07 10° WSW 19:43:35 21° SW 19:43:35 21° SW
Meteor 1-12 Rocket 4.2 19:42:41 10° S 19:48:31 89° E 19:54:30 10° NNE
CSL-04 Debris 4.1 19:48:22 33° SSE 19:50:53 85° WSW 19:56:21 10° NNW
Resurs 1-3 4.3 19:54:31 28° SSW 19:56:32 50° W 20:00:48 10° NNW
Cosmos 407 Rocket 3.3 19:53:38 10° SSW 19:58:51 78° ESE 20:04:11 10° NNE
USA 229 DEB 3.4 19:54:58 10° SW 20:01:10 88° NW 20:07:59 10° NE
USA 229 3.4 19:55:03 10° SW 20:01:14 89° NW 20:08:04 10° NE
Meteor 1-24 Rocket 3.7 19:57:59 10° NNW 20:03:22 73° W 20:04:58 45° S
USA 186 4.2 20:08:04 20° NW 20:08:04 20° NW 20:09:16 10° NNW
CSL-04 Rocket 3.8 20:05:53 45° S 20:07:28 69° WSW 20:12:48 10° NNW
Cosmos 1733 Rocket 4.2 20:03:36 10° SSW 20:07:44 41° WNW 20:11:53 10° N
Meteor 2-5 Rocket 4.0 20:02:27 10° NNW 20:08:03 64° W 20:10:22 35° SSW
Resurs 01 Rocket 2.0 20:09:57 59° NNW 20:09:57 59° NNW 20:13:35 10° NNW
SPOT 1/Viking Rocket 3.9 20:10:54 46° SSW 20:12:12 62° WSW 20:17:19 10° NNW
Cosmos 2100 Rocket 4.5 20:09:30 10° N 20:14:21 44° NE 20:14:21 44° NE
IRS-1C Rocket 4.3 20:16:30 59° NNE 20:16:30 59° NNE 20:20:56 10° N
NOSS 3-1 (A) 4.5 20:13:06 10° WSW 20:18:00 39° NW 20:23:53 10° NNE
Okean-O 3.6 20:24:15 45° NNW 20:24:15 45° NNW 20:27:26 10° NNW
Cosmos 1763 Rocket 3.9 20:20:59 10° NNW 20:24:57 54° N 20:24:57 54° N
Cosmos 540 Rocket 4.4 20:24:45 10° NNW 20:28:05 38° N 20:28:05 38° N
Cosmos 1140 Rocket 4.5 20:26:56 10° SW 20:31:51 44° WNW 20:36:50 10° N
USA 267 3.5 20:45:35 57° NNE 20:45:37 57° NNE 20:52:01 10° NW
Terra 4.2 20:57:51 16° N 20:57:51 16° N 20:58:54 10° N
Lacrosse 5 3.5 20:58:56 10° NW 21:01:41 32° WNW 21:01:41 32° WNW
Cosmos 2369 Rocket 3.2 20:59:07 10° NNW 21:02:57 42° NW 21:02:57 42° NW
SL-16 R/B 3.5 21:07:05 10° WSW 21:12:20 38° NW 21:17:39 10° NNE
CZ-4C R/B 3.6 21:18:02 10° NW 21:23:20 46° N 21:23:20 46° N
CENTAUR R/B 3.3 21:23:14 10° NW 21:30:30 73° NW 21:30:30 73° NW
